Weather History for Joensuu, Finland

Change the Weather History Date:

Thursday, July 11, 2013

  Actual Average Record
Temperature  
Mean Temperature 59 °F -  
Max Temperature 67 °F - - ()
Min Temperature 51 °F - - ()
Degree Days  
Heating Degree Days 6    
Growing Degree Days 9 (Base 50)    
Moisture  
Dew Point 49 °F    
Average Humidity 70    
Maximum Humidity 100    
Minimum Humidity 32    
Precipitation  
Precipitation 0.00 in 0.10 in - ()
Sea Level Pressure  
Sea Level Pressure 29.87 in    
Wind  
Wind Speed 6 mph ()    
Max Wind Speed 10 mph    
Max Gust Speed -    
Visibility 7.0 miles    
Events      
T = Trace of Precipitation, MM = Missing Value Source: Averaged Metar Reports

Daily Weather History Graph

Daily Weather History Graph

Search for Another Location

Airport:

Trip Planner

Search our weather history database for the weather conditions in past years. The results will help you decide how hot, cold, wet, or windy it might be!

Date:

Astronomy

Jul. 11, 2013 Rise Set
Actual Time 3:26 AM EEST 10:45 PM EEST
Civil Twilight 1:39 AM EEST 12:34 AM EEST
Nautical Twilight Sun does not rise Sun does not rise
Astronomical Twilight Sun does not rise Sun does not rise
Moon 7:56 AM EEST (7/11) 10:35 PM EEST (7/11)
Length of Visible Light 22h 55m
Length of Day
19h 18m
Waxing Crescent, 9% of the Moon is Illuminated
Jul 11
Waxing Crescent
Jul 16
First Quarter
Jul 22
Full
Jul 29
Last Quarter
Aug 7
New

Hourly Weather History & Observations

Time (EEST) Temp. Dew Point Humidity Pressure Visibility Wind Dir Wind Speed Gust Speed Precip Events Conditions
12:20 AM 59.0 °F 57.2 °F 94% 29.80 in 6.2 mi WNW 5.8 mph - N/A   Mostly Cloudy
12:50 AM 58 °F 57 °F 94% 29.82 in 28 mi NW 6.7 mph - -   Clear
12:50 AM 57.2 °F 57.2 °F 100% 29.80 in - NW 5.8 mph - N/A   Clear
1:20 AM 57.2 °F 57.2 °F 100% 29.80 in 6.2 mi NW 6.9 mph - N/A   Partly Cloudy
1:50 AM 57 °F 55 °F 92% 29.83 in 28 mi NW 6.7 mph - -   Clear
1:50 AM 57.2 °F 55.4 °F 94% 29.80 in 6.2 mi NW 6.9 mph - N/A   Scattered Clouds
2:20 AM 57.2 °F 55.4 °F 94% 29.80 in 6.2 mi NW 5.8 mph - N/A   Partly Cloudy
2:50 AM 55.4 °F 55.4 °F 100% 29.83 in - NW 5.8 mph - N/A   Clear
3:00 AM 55 °F 54 °F 98% 29.83 in 22 mi WNW 6.7 mph - -   Clear
3:20 AM 55.4 °F 53.6 °F 94% 29.83 in - NW 6.9 mph - N/A   Clear
3:50 AM 55 °F 54 °F 94% 29.84 in 25 mi NW 6.7 mph - -   Clear
3:50 AM 55.4 °F 53.6 °F 94% 29.83 in 6.2 mi NW 6.9 mph - N/A   Scattered Clouds
4:20 AM 55.4 °F 53.6 °F 94% 29.83 in 6.2 mi NW 6.9 mph - N/A   Mostly Cloudy
4:50 AM 54 °F 53 °F 95% 29.85 in 19 mi NW 8.9 mph - -   Clear
4:50 AM 53.6 °F 53.6 °F 100% 29.83 in 6.2 mi NW 8.1 mph - N/A   Scattered Clouds
5:20 AM 53.6 °F 53.6 °F 100% 29.83 in 6.2 mi NW 6.9 mph - N/A   Scattered Clouds
5:50 AM 53.6 °F 53.6 °F 100% 29.83 in 6.2 mi NW 8.1 mph - N/A   Mostly Cloudy
6:00 AM 54 °F 53 °F 95% 29.85 in 16 mi NW 8.9 mph - -   Clear
6:20 AM 55.4 °F 53.6 °F 94% 29.83 in 6.2 mi NW 8.1 mph - N/A   Mostly Cloudy
6:50 AM 55 °F 53 °F 92% 29.86 in 25 mi NW 6.7 mph - -   Clear
6:50 AM 55.4 °F 53.6 °F 94% 29.86 in 6.2 mi NW 6.9 mph - N/A   Mostly Cloudy
7:20 AM 57.2 °F 53.6 °F 88% 29.86 in 6.2 mi NNW 6.9 mph - N/A   Scattered Clouds
7:50 AM 58 °F 53 °F 78% 29.86 in 31 mi NNW 8.9 mph - -   Clear
7:50 AM 57.2 °F 53.6 °F 88% 29.86 in 6.2 mi NNW 8.1 mph - N/A   Scattered Clouds
8:20 AM 57.2 °F 53.6 °F 88% 29.86 in 6.2 mi NW 9.2 mph - N/A   Scattered Clouds
8:50 AM 59.0 °F 53.6 °F 82% 29.86 in 6.2 mi NW 9.2 mph - N/A   Scattered Clouds
9:00 AM 58 °F 51 °F 71% 29.87 in 31 mi NW 8.9 mph - -   Clear
9:20 AM 59.0 °F 51.8 °F 77% 29.86 in 6.2 mi NNW 6.9 mph - N/A   Mostly Cloudy
9:50 AM 62 °F 52 °F 61% 29.87 in 31 mi North 8.9 mph - -   Clear
9:50 AM 62.6 °F 51.8 °F 68% 29.86 in 6.2 mi NNW 8.1 mph - N/A   Scattered Clouds
10:20 AM 59.0 °F 50.0 °F 72% 29.86 in 6.2 mi NNW 8.1 mph - N/A   Mostly Cloudy
10:50 AM 60.8 °F 50.0 °F 68% 29.86 in 6.2 mi NNW 5.8 mph - N/A   Mostly Cloudy
11:20 AM 60.8 °F 48.2 °F 63% 29.89 in 6.2 mi NNW 5.8 mph - N/A   Mostly Cloudy
11:50 AM 60.8 °F 44.6 °F 55% 29.89 in 6.2 mi NW 10.4 mph - N/A   Mostly Cloudy
12:00 PM 62 °F 46 °F 44% 29.88 in 31 mi NW 8.9 mph - -   Clear
12:20 PM 62.6 °F 44.6 °F 52% 29.89 in 6.2 mi NNW 6.9 mph - N/A   Mostly Cloudy
12:50 PM 62 °F 45 °F 43% 29.89 in 31 mi NW 8.9 mph - -   Clear
12:50 PM 62.6 °F 46.4 °F 55% 29.89 in 6.2 mi NW 8.1 mph - N/A   Mostly Cloudy
1:20 PM 64.4 °F 44.6 °F 49% 29.89 in 6.2 mi Variable 5.8 mph - N/A   Mostly Cloudy
1:50 PM 64 °F 45 °F 39% 29.89 in 31 mi WNW 6.7 mph - -   Clear
1:50 PM 64.4 °F 44.6 °F 49% 29.89 in 6.2 mi WNW 5.8 mph - N/A   Mostly Cloudy
2:20 PM 64.4 °F 42.8 °F 45% 29.89 in 6.2 mi NW 5.8 mph - N/A   Mostly Cloudy
2:50 PM 64.4 °F 42.8 °F 45% 29.89 in - Variable 3.5 mph - N/A   Clear
3:00 PM 63 °F 44 °F 38% 29.89 in 31 mi North 6.7 mph - -   Clear
3:20 PM 64.4 °F 42.8 °F 45% 29.89 in - Variable 2.3 mph - N/A   Clear
3:50 PM 64.4 °F 44.6 °F 49% 29.89 in - NE 5.8 mph - N/A   Clear
4:20 PM 62.6 °F 44.6 °F 52% 29.89 in - NE 3.5 mph - N/A   Clear
4:50 PM 65 °F 45 °F 36% 29.89 in 31 mi North 4.5 mph - -   Clear
4:50 PM 64.4 °F 44.6 °F 49% 29.89 in - Variable 4.6 mph - N/A   Clear
5:20 PM 64.4 °F 44.6 °F 49% 29.89 in - North 4.6 mph - N/A   Clear
5:50 PM 66.2 °F 42.8 °F 43% 29.89 in - WNW 8.1 mph - N/A   Clear
6:00 PM 66 °F 43 °F 32% 29.88 in 31 mi WNW 6.7 mph - -   Clear
6:20 PM 66.2 °F 42.8 °F 43% 29.89 in - NW 8.1 mph - N/A   Clear
6:50 PM 64.4 °F 42.8 °F 45% 29.89 in - WNW 8.1 mph - N/A   Clear
7:20 PM 64.4 °F 42.8 °F 45% 29.89 in - West 4.6 mph - N/A   Clear
7:50 PM 62.6 °F 44.6 °F 52% 29.89 in - West 3.5 mph - N/A   Clear
8:20 PM 64.4 °F 42.8 °F 45% 29.89 in - West 2.3 mph - N/A   Clear
8:50 PM 64.4 °F 44.6 °F 49% 29.89 in - West 5.8 mph - N/A   Clear
9:00 PM 63 °F 44 °F 39% 29.89 in 31 mi West 4.5 mph - -   Clear
9:20 PM 62.6 °F 44.6 °F 52% 29.89 in - WSW 3.5 mph - N/A   Clear
9:50 PM 59 °F 47 °F 55% 29.90 in 31 mi WSW 4.5 mph - -   Clear
9:50 PM 60.8 °F 46.4 °F 59% 29.89 in - WSW 3.5 mph - N/A   Clear
10:20 PM 57.2 °F 48.2 °F 72% 29.89 in - WNW 1.2 mph - N/A   Clear
10:50 PM 54 °F 47 °F 70% 29.91 in 31 mi Calm Calm - -   Clear
10:50 PM 55.4 °F 48.2 °F 77% 29.89 in - Calm Calm - N/A   Clear
11:20 PM 51.8 °F 46.4 °F 82% 29.89 in - NW 1.2 mph - N/A   Clear
11:50 PM 51.8 °F 48.2 °F 88% 29.92 in - WNW 3.5 mph - N/A   Clear